Powrót do katalogu

SATCOM 3 DEB *

LostHEO
NORAD 32992·DEBRIS·🇺🇸 United States

Wystrzelony Dec 7, 1979 z Cape Canaveral Space Force Station

Loading…

Następne Przeloty (najbliższe 24 godziny)

TLE

NieaktualneSource: Space-Track

Epoka: Feb 25, 2025, 14:34 UTC

1 32992U 79101T   25056.60710858 -.00000094  00000-0  00000+0 0  9999
2 32992  13.1437 312.3523 4670485 354.0087 328.2287  1.78290476114244

Śledź SATCOM 3 DEB * w czasie rzeczywistym z AllMySat

Download on the App Store